| time (UTC) | temp F | wind direction | speed MPH | gust MPH | rain 1hr in | rain 24hr in | rain mn in | humidity % | barometer mb |
| 20260905040719 | 64 | 249 | 0.0 | 0.0 | 0.00 | 0.00 | 0.00 | 80 | 1018.1 |
| 20260905040219 | 64 | 249 | 0.0 | 0.0 | 0.00 | 0.00 | 0.00 | 80 | 1017.9 |
| 20260905030719 | 65 | 249 | 0.0 | 0.0 | 0.00 | 0.00 | 0.00 | 79 | 1017.7 |
| 20260905030219 | 66 | 249 | 0.0 | 0.0 | 0.00 | 0.00 | 0.00 | 79 | 1017.6 |
| 20260905023219 | 66 | 249 | 0.0 | 0.0 | 0.00 | 0.00 | 0.00 | 79 | 1017.5 |
| 20260905020219 | 68 | 249 | 0.0 | 0.0 | 0.00 | 0.00 | 0.00 | 78 | 1017.5 |
| 20260905013219 | 70 | 249 | 0.0 | 0.0 | 0.00 | 0.00 | 0.00 | 77 | 1017.5 |
| 20260905010720 | 70 | 259 | 0.0 | 0.0 | 0.00 | 0.00 | 0.00 | 78 | 1017.7 |
| 20260905010220 | 70 | 259 | 0.0 | 0.0 | 0.00 | 0.00 | 0.00 | 78 | 1017.6 |
| 20260905003219 | 70 | 251 | 0.0 | 0.0 | 0.00 | 0.00 | 0.00 | 77 | 1017.7 |
| 20260905000718 | 71 | 253 | 0.0 | 0.0 | 0.00 | 0.00 | 0.00 | 77 | 1017.7 |
| 20260905000219 | 71 | 254 | 0.0 | 0.0 | 0.00 | 0.00 | 0.00 | 77 | 1017.7 |
| 20260904233719 | 73 | 259 | 0.0 | 0.0 | 0.00 | 0.00 | 0.00 | 76 | 1017.6 |
| 20260904230719 | 74 | 222 | 0.0 | 0.0 | 0.00 | 0.00 | 0.00 | 76 | 1017.6 |
| 20260904230219 | 74 | 222 | 0.0 | 0.0 | 0.00 | 0.00 | 0.00 | 76 | 1017.6 |
| 20260904220219 | 74 | 90 | 0.0 | 0.0 | 0.00 | 0.00 | 0.00 | 75 | 1018.1 |
| 20260904210718 | 78 | 90 | 0.0 | 0.0 | 0.00 | 0.00 | 0.00 | 71 | 1017.7 |
| 20260904210218 | 78 | 90 | 0.0 | 0.0 | 0.00 | 0.00 | 0.00 | 71 | 1017.9 |
| 20260904200718 | 81 | 90 | 0.0 | 0.0 | 0.00 | 0.00 | 0.00 | 67 | 1017.6 |
| 20260904190718 | 84 | 80 | 0.0 | 0.0 | 0.00 | 0.00 | 0.00 | 60 | 1017.1 |
| 20260904183720 | 87 | 98 | 0.0 | 7.0 | 0.00 | 0.00 | 0.00 | 55 | 1016.6 |
| 20260904183218 | 87 | 91 | 2.0 | 9.0 | 0.00 | 0.00 | 0.00 | 55 | 1016.5 |
| 20260904180718 | 88 | 80 | 0.0 | 0.0 | 0.00 | 0.00 | 0.00 | 54 | 1016.1 |
| 20260904173718 | 90 | 100 | 0.0 | 0.0 | 0.00 | 0.00 | 0.00 | 52 | 1015.7 |
| 20260904173218 | 91 | 129 | 2.0 | 8.0 | 0.00 | 0.00 | 0.00 | 51 | 1015.6 |
| 20260904170718 | 93 | 113 | 3.0 | 6.0 | 0.00 | 0.00 | 0.00 | 46 | 1015.1 |
| 20260904170218 | 94 | 113 | 3.0 | 12.0 | 0.00 | 0.00 | 0.00 | 45 | 1015.1 |
| 20260904163218 | 99 | 125 | 6.0 | 12.0 | 0.00 | 0.00 | 0.00 | 38 | 1014.6 |
| 20260904160718 | 102 | 289 | 5.0 | 10.0 | 0.00 | 0.00 | 0.00 | 24 | 1014.5 |
| 20260904160218 | 102 | 272 | 1.0 | 10.0 | 0.00 | 0.00 | 0.00 | 24 | 1014.5 |
| 20260904153218 | 102 | 245 | 7.0 | 15.0 | 0.00 | 0.00 | 0.00 | 25 | 1014.7 |
| 20260904150718 | 102 | 219 | 7.0 | 14.0 | 0.00 | 0.00 | 0.00 | 25 | 1014.7 |
| 20260904150218 | 102 | 263 | 7.0 | 14.0 | 0.00 | 0.00 | 0.00 | 25 | 1014.7 |
| 20260904140718 | 101 | 258 | 10.0 | 17.0 | 0.00 | 0.00 | 0.00 | 25 | 1015.1 |
| 20260904133718 | 101 | 249 | 6.0 | 12.0 | 0.00 | 0.00 | 0.00 | 24 | 1015.2 |
| 20260904130718 | 100 | 232 | 6.0 | 14.0 | 0.00 | 0.00 | 0.00 | 24 | 1015.5 |
| 20260904130218 | 100 | 258 | 9.0 | 20.0 | 0.00 | 0.00 | 0.00 | 26 | 1015.4 |
| 20260904123717 | 100 | 256 | 6.0 | 20.0 | 0.00 | 0.00 | 0.00 | 25 | 1015.6 |
| 20260904120717 | 100 | 258 | 9.0 | 17.0 | 0.00 | 0.00 | 0.00 | 27 | 1015.9 |
| 20260904113218 | 98 | 236 | 5.0 | 14.0 | 0.00 | 0.00 | 0.00 | 30 | 1016.1 |
| 20260904100217 | 87 | 72 | 2.0 | 6.0 | 0.00 | 0.00 | 0.00 | 61 | 1017.2 |
| 20260904093217 | 85 | 70 | 1.0 | 6.0 | 0.00 | 0.00 | 0.00 | 63 | 1017.7 |
| 20260904083217 | 81 | 111 | 0.0 | 0.0 | 0.00 | 0.00 | 0.00 | 70 | 1017.9 |
| 20260904073717 | 77 | 236 | 0.0 | 0.0 | 0.00 | 0.00 | 0.00 | 74 | 1017.9 |
| 20260904070718 | 71 | 240 | 0.0 | 0.0 | 0.00 | 0.00 | 0.00 | 78 | 1018.3 |
| 20260904070217 | 71 | 238 | 0.0 | 0.0 | 0.00 | 0.00 | 0.00 | 78 | 1018.2 |
| 20260904063717 | 69 | 243 | 0.0 | 0.0 | 0.00 | 0.00 | 0.00 | 80 | 1018.4 |
| 20260904053217 | 64 | 254 | 0.0 | 0.0 | 0.00 | 0.00 | 0.00 | 79 | 1018.4 |
| 20260904050217 | 64 | 250 | 0.0 | 0.0 | 0.00 | 0.00 | 0.00 | 80 | 1018.2 |